Location: Unspecified
(0.0000°N, 0.0000°E)
Time: 05:04:44
(UTC+00:00)

Vanguard 1 - All Passes

Search period start: 24 May 2015 00:00
Search period end: 03 June 2015 00:00
Orbit: 650 x 3835 km, 34.3° (Epoch: 22 May)

Date Brightness Start Highest point End Pass type
(mag) Time Alt. Az. Time Alt. Az. Time Alt. Az.
24 May - 02:06:01 10° NNW 02:20:13 21° NNE 02:36:30 10° ENE visible
24 May - 04:31:22 10° NW 04:52:45 43° NNE 05:09:51 10° E visible
24 May - 06:58:10 10° NW 07:20:33 87° SW 07:33:29 10° SE daylight
24 May - 09:30:45 10° W 09:43:55 27° SW 09:51:48 10° SSE daylight
24 May - 16:55:26 10° SSE 16:57:06 12° SE 16:59:16 10° ESE daylight
24 May - 19:11:24 10° WSW 19:17:11 80° NW 19:27:38 10° NE visible
24 May - 21:33:30 10° WNW 21:41:03 25° NNW 21:52:30 10° NNE visible
25 May - 00:01:23 10° NW 00:10:31 16° N 00:22:02 10° NNE visible
25 May - 02:28:01 10° NNW 02:43:58 25° NNE 03:01:32 10° ENE visible
25 May - 04:52:53 10° NW 05:15:27 53° NNE 05:32:22 10° ESE visible
25 May - 07:20:30 10° WNW 07:42:11 70° SW 07:54:37 10° SE daylight
25 May - 09:55:40 10° W 10:05:29 19° SW 10:11:44 10° S daylight
25 May - 17:14:35 10° S 17:18:17 22° SE 17:23:17 10° E daylight
25 May - 19:32:47 10° WSW 19:38:43 52° NNW 19:49:10 10° NE visible
25 May - 21:56:28 10° WNW 22:03:44 20° NNW 22:13:48 10° NNE visible
26 May - 00:24:40 10° NNW 00:34:15 16° N 00:46:26 10° NE visible
26 May - 02:49:39 10° NNW 03:07:27 30° NNE 03:26:01 10° E visible
26 May - 05:14:27 10° NW 05:37:52 65° NNE 05:54:26 10° ESE visible
26 May - 07:43:16 10° WNW 08:03:42 54° SW 08:15:30 10° SE daylight
26 May - 10:22:13 10° WSW 10:27:18 12° SW 10:30:37 10° SSW daylight
26 May - 17:34:52 10° SSW 17:39:21 39° SE 17:45:57 10° ENE daylight
26 May - 19:54:33 10° W 20:00:32 36° NNW 20:10:27 10° NE visible
26 May - 22:19:58 10° NW 22:26:40 16° N 22:35:19 10° NNE visible
27 May - 00:47:15 10° NNW 00:58:01 18° NNE 01:11:51 10° NE visible
27 May - 03:11:04 10° NNW 03:30:37 37° NNE 03:49:50 10° E visible
27 May - 05:36:10 10° NW 06:00:01 80° NE 06:16:09 10° ESE visible
27 May - 08:06:35 10° WNW 08:25:13 41° SW 08:36:12 10° SSE daylight
27 May - 17:55:39 10° SW 18:00:26 71° SE 18:08:00 10° ENE daylight
27 May - 20:16:44 10° WNW 20:22:37 25° NNW 20:31:29 10° NNE visible
27 May - 22:43:45 10° NNW 22:49:50 14° N 22:57:22 10° NNE visible
28 May - 01:09:11 10° NNW 01:21:42 21° NNE 01:37:38 10° ENE visible
28 May - 03:32:25 10° NW 03:53:30 45° NNE 04:13:00 10° E visible
28 May - 05:58:07 10° NW 06:21:57 85° SW 06:37:35 10° SE daylight
28 May - 08:30:38 10° W 08:46:51 31° SW 08:56:41 10° SSE daylight
28 May - 16:00:32 10° SSE 16:01:37 11° SE 16:03:00 10° SE daylight
28 May - 18:16:46 10° WSW 18:21:42 68° NW 18:29:37 10° NE visible
28 May - 20:39:30 10° WNW 20:44:56 18° NNW 20:52:20 10° NNE visible
28 May - 23:07:20 10° NNW 23:13:12 13° N 23:20:34 10° NNE visible
29 May - 01:30:43 10° NNW 01:45:11 25° NNE 02:03:07 10° ENE visible
29 May - 03:53:46 10° NW 04:16:07 56° NNE 04:35:37 10° ESE visible
29 May - 06:20:24 10° WNW 06:43:45 69° SW 06:58:45 10° SE daylight
29 May - 08:55:32 10° W 09:08:39 22° SW 09:16:55 10° S daylight
29 May - 16:19:33 10° SSW 16:22:55 21° SE 16:26:55 10° E daylight
29 May - 18:38:17 10° W 18:43:12 41° NNW 18:50:52 10° NE visible
29 May - 21:02:59 10° NW 21:07:30 14° N 21:12:58 10° NNE visible
29 May - 23:30:03 10° NNW 23:36:41 14° N 23:45:26 10° NE visible
30 May - 01:51:59 10° NNW 02:08:23 30° NNE 02:27:56 10° E visible
30 May - 04:15:13 10° NW 04:38:29 68° NE 04:57:47 10° ESE visible
30 May - 06:43:07 10° WNW 07:05:28 55° SW 07:19:43 10° SE daylight
30 May - 09:21:35 10° WSW 09:30:43 16° SSW 09:36:41 10° S daylight
30 May - 16:39:55 10° SSW 16:44:04 40° SE 16:49:19 10° ENE daylight
30 May - 19:00:16 10° W 19:04:58 26° NNW 19:11:48 10° NNE visible
30 May - 21:27:32 10° NNW 21:30:17 11° N 21:33:12 10° N visible
30 May - 23:51:52 10° NNW 00:00:09 16° NNE 00:11:31 10° NE visible
31 May - 02:13:09 10° NNW 02:31:19 38° NNE 02:51:59 10° E visible
31 May - 04:36:50 10° NW 05:00:39 82° NE 05:19:35 10° SE visible
31 May - 07:06:24 10° WNW 07:27:15 43° SW 07:40:31 10° SSE daylight
31 May - 09:50:11 10° SW 09:53:03 10° SSW 09:54:33 10° SSW daylight
31 May - 17:00:47 10° SW 17:05:12 79° SE 17:11:06 10° ENE daylight
31 May - 19:22:50 10° WNW 19:26:58 18° NNW 19:32:21 10° NNE visible
01 Jun - 00:13:08 10° NNW 00:23:30 19° NNE 00:37:53 10° ENE visible
01 Jun - 02:34:17 10° NW 02:53:59 47° NNE 03:15:21 10° ESE visible
01 Jun - 04:58:41 10° NW 05:22:39 83° SW 05:41:04 10° SE visible
01 Jun - 07:30:22 10° W 07:49:09 33° SW 08:01:10 10° SSE daylight
01 Jun - 15:04:25 10° S 15:06:14 12° SSE 15:08:11 10° ESE daylight
01 Jun - 17:22:04 10° WSW 17:26:27 55° NW 17:32:27 10° NE daylight
01 Jun - 19:46:28 10° NW 19:49:12 12° NNW 19:52:11 10° N visible
02 Jun - 00:34:10 10° NNW 00:46:40 24° NNE 01:03:49 10° ENE visible
02 Jun - 02:55:29 10° NW 03:16:25 57° NE 03:38:06 10° ESE visible
02 Jun - 05:20:51 10° WNW 05:44:37 69° SW 06:02:20 10° SE visible
02 Jun - 07:55:12 10° W 08:11:15 25° SSW 08:21:39 10° SSE daylight
02 Jun - 15:24:01 10° SSW 15:27:40 23° SE 15:31:22 10° E daylight
02 Jun - 17:43:48 10° W 17:47:55 30° NNW 17:53:24 10° NNE daylight
02 Jun - 22:37:46 10° N 22:39:37 10° NNE 22:42:25 10° NNE visible
